Regional Weather Roundup
Issued by NWS

Home | Current Version | Previous Version | Graphics & Text | Print | Product List | Glossary On
Versions: 1 2 3 4 5 6 7 8 9 10 11 12 13 14 15 16 17 18 19 20 21 22 23 24 25 26 27 28 29 30 31 32 33 34 35 36 37 38 39 40 41 42 43 44 45 46 47 48 49 50
000
ASUS43 KFSD 312110
RWRSD

WEATHER ROUNDUP FOR SOUTH DAKOTA
NATIONAL WEATHER SERVICE SIOUX FALLS SD
400 PM CDT FRI JUL 31 2015

NOTE: "FAIR" INDICATES FEW OR NO CLOUDS BELOW 12,000 FEET WITH NO
SIGNIFICANT WEATHER AND/OR OBSTRUCTIONS TO VISIBILITY.


SDZ001>005-009-010-012>017-312200-
NORTHWEST AND NORTH CENTRAL SOUTH DAKOTA

CITY           SKY/WX    TMP DP  RH WIND       PRES   REMARKS
BUFFALO          N/A     91  39  16 SW12      30.09F
FAITH            N/A     90  34  13 NE9       30.14F
MOBRIDGE       SUNNY     91  49  23 NW8       30.07F
$$

SDZ012>016-024>037-041>051-057-063-072>074-312200-
SOUTHWEST AND SOUTH CENTRAL SOUTH DAKOTA

CITY           SKY/WX    TMP DP  RH WIND       PRES   REMARKS
RAPID CTY ARPT SUNNY     87  53  31 E10       30.17F
PIERRE         SUNNY     91  49  23 MISG      30.08F
CUSTER         MOSUNNY   79  47  32 SE7       30.32F
ELLSWORTH AFB  SUNNY     87  50  27 NE5       30.17F
PHILIP         SUNNY     91  54  28 N6        30.11F
PINE RIDGE     SUNNY     92  47  21 E7        30.15F
SPEARFISH      FAIR      82  54  36 E13G18    30.21F
WINNER         FAIR      93  57  29 NE5       30.10F
$$

SDZ004>011-016>023-039-040-312200-
NORTHEAST SOUTH DAKOTA

CITY           SKY/WX    TMP DP  RH WIND       PRES   REMARKS
ABERDEEN       SUNNY     87  57  35 SW9       30.06F
WATERTOWN      SUNNY     82  53  36 W7        30.10F
BROOKINGS      SUNNY     82  54  36 SW7       30.12F
SISSETON         N/A     83  55  38 NW9       30.05F
$$

SDZ017-020-022-023-036>040-048>070-312200-
SOUTHEAST SOUTH DAKOTA

CITY           SKY/WX    TMP DP  RH WIND       PRES   REMARKS
SIOUX FALLS    MOSUNNY   87  53  31 CALM      30.09F
HURON          SUNNY     86  54  33 S6        30.08F
CHAMBERLAIN    SUNNY     87  54  31 CALM      30.10F
MITCHELL       SUNNY     87  53  31 CALM      30.09F
YANKTON        SUNNY     84  66  54 E7        30.06F
$$

ABBREVIATIONS USED IN REMARKS
   TC - TEMPERATURE IN CELSIUS
  WCI - WIND CHILL INDEX
   HX - HEAT INDEX
  VSB - VISIBILITY




USA.gov is the U.S. government's official web portal to all federal, state and local government web resources and services.